Location: Caucaguita
(10.3578°N, 66.8025°W)
Time: 01:43:38
(UTC+00:00)

Cosmos 2279 Rocket - Pass Details

Date: 18 November 2025
Orbit: 963 x 977 km, 82.9° (Epoch: 08 December)

Event Time Altitude Azimuth Distance (km) Brightness Sun altitude
Rises 23:29:37 0° 182° (S) 3,643 7.2 -21.5°
Reaches altitude 10° 23:32:07 10° 182° (S) 2,696 6.5 -22.1°
Maximum altitude 23:38:18 87° 93° (E) 967 3.8 -23.5°
Enters shadow 23:43:09 17° 5° (N) 2,203 5.6 -24.7°
